Location: Avully
(45.9633°N, 6.0228°E)
Time: 03:32:40
(UTC+00:00)

SAR-Lupe-4 - Pass Details

Date: 23 May 2024
Orbit: 476 x 482 km, 98.1° (Epoch: 02 April)

Event Time Altitude Azimuth Distance (km) Brightness Sun altitude
Rises 02:10:13 0° 18° (NNE) 2,551 8.6 -14.4°
Reaches altitude 10° 02:12:20 10° 23° (NNE) 1,667 7.6 -14.2°
Maximum altitude 02:15:50 52° 101° (E) 606 4.2 -13.8°
Enters shadow 02:18:38 15° 175° (S) 1,378 5.4 -13.5°
